,,,PA_Meas_PMT16A,,PR_Meas_QMR101_102,,RH_Meas_QMH101,,SR_Meas_QMS101,,TA_Meas_QMH101,,GenWind,,GenWind,
date,time,status,PA,status,PR,status,RH,status,SR,status,TA,status,DirAvg,status,SpdAvg,
2009-03-01, 00:00:05,VALID,1007.82,VALID,0,VALID,92.7825,VALID,0,VALID,24.3371,VALID,15,VALID,0,
2009-03-01, 00:01:05,VALID,1007.8,VALID,0,VALID,92.8207,VALID,0,VALID,24.3371,VALID,15,VALID,0,
2009-03-01, 00:02:05,VALID,1007.77,VALID,0,VALID,92.8512,VALID,0,VALID,24.3566,VALID,15,VALID,0,
2009-03-01, 00:03:05,VALID,1007.78,VALID,0,VALID,92.8588,VALID,0,VALID,24.3566,VALID,15,VALID,0,
2009-03-01, 00:04:05,VALID,1007.75,VALID,0,VALID,92.8817,VALID,0,VALID,24.3352,VALID,15,VALID,0,
2009-03-01, 00:05:05,VALID,1007.76,VALID,0,VALID,92.8741,VALID,0,VALID,24.3547,VALID,15,VALID,0,
2009-03-01, 00:06:05,VALID,1007.72,VALID,0,VALID,92.8817,VALID,0,VALID,24.3761,VALID,15,VALID,0,
2009-03-01, 00:07:05,VALID,1007.71,VALID,0,VALID,92.8588,VALID,0,VALID,24.3566,VALID,15,VALID,0,
2009-03-01, 00:08:05,VALID,1007.7,VALID,0,VALID,92.8741,VALID,0,VALID,24.3352,VALID,15,VALID,0,
2009-03-01, 00:09:05,VALID,1007.69,VALID,0,VALID,92.8588,VALID,0,VALID,24.3352,VALID,15,VALID,0,
2009-03-01, 00:10:05,VALID,1007.67,VALID,0,VALID,92.8664,VALID,0,VALID,24.3566,VALID,15,VALID,0,
2009-03-01, 00:11:05,VALID,1007.68,VALID,0,VALID,92.8817,VALID,0,VALID,24.3352,VALID,15,VALID,0,
2009-03-01, 00:12:05,VALID,1007.67,VALID,0,VALID,92.8817,VALID,0,VALID,24.3566,VALID,15,VALID,0,
2009-03-01, 00:13:05,VALID,1007.67,VALID,0,VALID,92.8969,VALID,0,VALID,24.3352,VALID,15,VALID,0,
2009-03-01, 00:14:05,VALID,1007.66,VALID,0,VALID,92.8969,VALID,0,VALID,24.3352,VALID,15,VALID,0,
2009-03-01, 00:15:05,VALID,1007.66,VALID,0,VALID,92.8893,VALID,0,VALID,24.3176,VALID,15,VALID,0,
2009-03-01, 00:16:05,VALID,1007.65,VALID,0,VALID,92.8664,VALID,0,VALID,24.2768,VALID,15,VALID,0,
2009-03-01, 00:17:05,VALID,1007.63,VALID,0,VALID,92.8664,VALID,0,VALID,24.2981,VALID,15,VALID,0,
2009-03-01, 00:18:05,VALID,1007.65,VALID,0,VALID,92.8817,VALID,0,VALID,24.2573,VALID,15,VALID,0,
2009-03-01, 00:19:05,VALID,1007.62,VALID,0,VALID,92.8969,VALID,0,VALID,24.2786,VALID,15,VALID,0,
2009-03-01, 00:20:05,VALID,1007.63,VALID,0,VALID,92.9198,VALID,0,VALID,24.2573,VALID,15,VALID,0,
2009-03-01, 00:21:05,VALID,1007.62,VALID,0,VALID,92.9198,VALID,0,VALID,24.2378,VALID,15,VALID,0,
2009-03-01, 00:22:05,VALID,1007.64,VALID,0,VALID,92.9427,VALID,0,VALID,24.2591,VALID,15,VALID,0,
2009-03-01, 00:23:05,VALID,1007.59,VALID,0,VALID,92.9579,VALID,0.105969,VALID,24.2591,VALID,15,VALID,0,
2009-03-01, 00:24:05,VALID,1007.59,VALID,0,VALID,92.9884,VALID,0,VALID,24.2378,VALID,15,VALID,0,
2009-03-01, 00:25:05,VALID,1007.57,VALID,0,VALID,92.9884,VALID,0,VALID,24.2378,VALID,15,VALID,0,
2009-03-01, 00:26:05,VALID,1007.55,VALID,0,VALID,92.9884,VALID,0,VALID,24.2183,VALID,15,VALID,0,
2009-03-01, 00:27:05,VALID,1007.54,VALID,0,VALID,93.0189,VALID,0,VALID,24.2396,VALID,15,VALID,0,
2009-03-01, 00:28:05,VALID,1007.54,VALID,0,VALID,92.9961,VALID,0,VALID,24.2007,VALID,15,VALID,0,
2009-03-01, 00:29:05,VALID,1007.51,VALID,0,VALID,93.0037,VALID,0,VALID,24.1988,VALID,15,VALID,0,
2009-03-01, 00:30:05,VALID,1007.49,VALID,0,VALID,93.0037,VALID,0,VALID,24.2007,VALID,34,VALID,0,
2009-03-01, 00:31:05,VALID,1007.5,VALID,0,VALID,93.0037,VALID,0,VALID,24.2007,VALID,41,VALID,0,
2009-03-01, 00:32:05,VALID,1007.48,VALID,0,VALID,93.0266,VALID,0,VALID,24.1793,VALID,41,VALID,0,
2009-03-01, 00:33:05,VALID,1007.47,VALID,0,VALID,93.0494,VALID,0,VALID,24.1599,VALID,41,VALID,0,
2009-03-01, 00:34:05,VALID,1007.44,VALID,0,VALID,93.0418,VALID,0,VALID,24.1599,VALID,41,VALID,0,
2009-03-01, 00:35:05,VALID,1007.41,VALID,0,VALID,93.0342,VALID,0,VALID,24.1404,VALID,41,VALID,0,
2009-03-01, 00:36:05,VALID,1007.41,VALID,0,VALID,93.0647,VALID,0,VALID,24.1404,VALID,41,VALID,0,
2009-03-01, 00:37:05,VALID,1007.42,VALID,0,VALID,93.0571,VALID,0,VALID,24.1404,VALID,41,VALID,0,
2009-03-01, 00:38:05,VALID,1007.4,VALID,0,VALID,93.0876,VALID,0,VALID,24.1209,VALID,41,VALID,0,
2009-03-01, 00:39:05,VALID,1007.38,VALID,0,VALID,93.0952,VALID,0,VALID,24.1635,VALID,41,VALID,0,
2009-03-01, 00:40:05,VALID,1007.39,VALID,0,VALID,93.0952,VALID,0,VALID,24.1209,VALID,41,VALID,0,
2009-03-01, 00:41:05,VALID,1007.36,VALID,0,VALID,93.1028,VALID,0,VALID,24.1014,VALID,41,VALID,0,
2009-03-01, 00:42:05,VALID,1007.35,VALID,0,VALID,93.1181,VALID,0,VALID,24.1227,VALID,41,VALID,0,
2009-03-01, 00:43:05,VALID,1007.33,VALID,0,VALID,93.1257,VALID,0,VALID,24.1227,VALID,41,VALID,0,
2009-03-01, 00:44:05,VALID,1007.33,VALID,0,VALID,93.141,VALID,0,VALID,24.1227,VALID,41,VALID,0,
2009-03-01, 00:45:05,VALID,1007.29,VALID,0,VALID,93.1486,VALID,0,VALID,24.1032,VALID,41,VALID,0,
2009-03-01, 00:46:05,VALID,1007.31,VALID,0,VALID,93.1638,VALID,0,VALID,24.1032,VALID,41,VALID,0,
2009-03-01, 00:47:05,VALID,1007.32,VALID,0,VALID,93.1638,VALID,0,VALID,24.1032,VALID,41,VALID,0,
2009-03-01, 00:48:05,VALID,1007.32,VALID,0,VALID,93.1867,VALID,0,VALID,24.0837,VALID,41,VALID,0,
2009-03-01, 00:49:05,VALID,1007.29,VALID,0,VALID,93.202,VALID,0,VALID,24.0819,VALID,41,VALID,0,
2009-03-01, 00:50:05,VALID,1007.3,VALID,0,VALID,93.202,VALID,0,VALID,24.0624,VALID,41,VALID,0,
2009-03-01, 00:51:05,VALID,1007.29,VALID,0,VALID,93.202,VALID,0,VALID,24.0643,VALID,41,VALID,0,
2009-03-01, 00:52:05,VALID,1007.27,VALID,0,VALID,93.2096,VALID,0,VALID,24.0235,VALID,41,VALID,0,
2009-03-01, 00:53:05,VALID,1007.28,VALID,0,VALID,93.2172,VALID,0,VALID,24.0448,VALID,41,VALID,0,
2009-03-01, 00:54:05,VALID,1007.29,VALID,0,VALID,93.2248,VALID,0,VALID,24.0253,VALID,41,VALID,0,
2009-03-01, 00:55:05,VALID,1007.28,VALID,0,VALID,93.2248,VALID,0,VALID,24.0058,VALID,41,VALID,0,
2009-03-01, 00:56:05,VALID,1007.31,VALID,0,VALID,93.2477,VALID,0,VALID,24.0058,VALID,41,VALID,0,
2009-03-01, 00:57:05,VALID,1007.32,VALID,0,VALID,93.263,VALID,0,VALID,23.965,VALID,41,VALID,0,
2009-03-01, 00:58:05,VALID,1007.3,VALID,0,VALID,93.2782,VALID,0,VALID,23.9863,VALID,41,VALID,0,
2009-03-01, 00:59:05,VALID,1007.31,VALID,0,VALID,93.2706,VALID,0,VALID,23.9455,VALID,41,VALID,0,
2009-03-01, 01:00:05,VALID,1007.3,VALID,0,VALID,93.3011,VALID,0,VALID,23.9863,VALID,41,VALID,0,
2009-03-01, 01:01:05,VALID,1007.27,VALID,0,VALID,93.3163,VALID,0,VALID,23.9668,VALID,41,VALID,0,
2009-03-01, 01:02:05,VALID,1007.3,VALID,0,VALID,93.3316,VALID,0,VALID,23.9668,VALID,41,VALID,0,
2009-03-01, 01:03:05,VALID,1007.28,VALID,0,VALID,93.3545,VALID,0,VALID,23.9455,VALID,41,VALID,0,
2009-03-01, 01:04:05,VALID,1007.25,VALID,0,VALID,93.3697,VALID,0,VALID,23.9668,VALID,41,VALID,0,
2009-03-01, 01:05:05,VALID,1007.25,VALID,0,VALID,93.385,VALID,0,VALID,23.9455,VALID,41,VALID,0,
2009-03-01, 01:06:05,VALID,1007.22,VALID,0,VALID,93.385,VALID,0,VALID,23.926,VALID,41,VALID,0,
2009-03-01, 01:07:05,VALID,1007.25,VALID,0,VALID,93.3926,VALID,0,VALID,23.9065,VALID,41,VALID,0,
2009-03-01, 01:08:05,VALID,1007.21,VALID,0,VALID,93.385,VALID,0,VALID,23.9278,VALID,41,VALID,0,
2009-03-01, 01:09:05,VALID,1007.24,VALID,0,VALID,93.3926,VALID,0,VALID,23.9084,VALID,41,VALID,0,
2009-03-01, 01:10:05,VALID,1007.24,VALID,0,VALID,93.3926,VALID,0,VALID,23.8871,VALID,41,VALID,0,
2009-03-01, 01:11:05,VALID,1007.23,VALID,0,VALID,93.385,VALID,0,VALID,23.9084,VALID,41,VALID,0,
2009-03-01, 01:12:05,VALID,1007.23,VALID,0,VALID,93.4155,VALID,0,VALID,23.8889,VALID,41,VALID,0,
2009-03-01, 01:13:05,VALID,1007.23,VALID,0,VALID,93.4002,VALID,0,VALID,23.9084,VALID,41,VALID,0,
2009-03-01, 01:14:05,VALID,1007.19,VALID,0,VALID,93.4231,VALID,0,VALID,23.9084,VALID,41,VALID,0,
2009-03-01, 01:15:05,VALID,1007.21,VALID,0,VALID,93.4231,VALID,0,VALID,23.8676,VALID,41,VALID,0,
2009-03-01, 01:16:05,VALID,1007.21,VALID,0,VALID,93.4384,VALID,0,VALID,23.8889,VALID,41,VALID,0,
2009-03-01, 01:17:05,VALID,1007.18,VALID,0,VALID,93.4384,VALID,0,VALID,23.8889,VALID,41,VALID,0,
2009-03-01, 01:18:05,VALID,1007.19,VALID,0,VALID,93.4689,VALID,0,VALID,23.8889,VALID,41,VALID,0,
2009-03-01, 01:19:05,VALID,1007.16,VALID,0,VALID,93.4612,VALID,0,VALID,23.8694,VALID,41,VALID,0,
2009-03-01, 01:20:05,VALID,1007.15,VALID,0,VALID,93.4765,VALID,0,VALID,23.8694,VALID,41,VALID,0,
2009-03-01, 01:21:05,VALID,1007.15,VALID,0,VALID,93.4841,VALID,0,VALID,23.8694,VALID,41,VALID,0,
2009-03-01, 01:22:05,VALID,1007.13,VALID,0,VALID,93.507,VALID,0,VALID,23.8481,VALID,41,VALID,0,
2009-03-01, 01:23:05,VALID,1007.13,VALID,0,VALID,93.4917,VALID,0,VALID,23.8499,VALID,41,VALID,0,
2009-03-01, 01:24:05,VALID,1007.14,VALID,0,VALID,93.507,VALID,0,VALID,23.8304,VALID,41,VALID,0,
2009-03-01, 01:25:05,VALID,1007.15,VALID,0,VALID,93.5299,VALID,0,VALID,23.8499,VALID,41,VALID,0,
2009-03-01, 01:26:05,VALID,1007.12,VALID,0,VALID,93.5375,VALID,0,VALID,23.8499,VALID,41,VALID,0,
2009-03-01, 01:27:05,VALID,1007.12,VALID,0,VALID,93.5832,VALID,0,VALID,23.8499,VALID,41,VALID,0,
2009-03-01, 01:28:05,VALID,1007.11,VALID,0,VALID,93.5756,VALID,0,VALID,23.8091,VALID,41,VALID,0,
2009-03-01, 01:29:05,VALID,1007.09,VALID,0,VALID,93.5527,VALID,0,VALID,23.8109,VALID,41,VALID,0,
2009-03-01, 01:30:05,VALID,1007.08,VALID,0,VALID,93.568,VALID,0,VALID,23.7914,VALID,41,VALID,0,
2009-03-01, 01:31:05,VALID,1007.07,VALID,0,VALID,93.5604,VALID,0,VALID,23.7507,VALID,41,VALID,0,
2009-03-01, 01:32:05,VALID,1007.06,VALID,0,VALID,93.5756,VALID,0,VALID,23.7525,VALID,41,VALID,0,
2009-03-01, 01:33:05,VALID,1007.07,VALID,0,VALID,93.5756,VALID,0,VALID,23.7525,VALID,41,VALID,0,
2009-03-01, 01:34:05,VALID,1007.11,VALID,0,VALID,93.5832,VALID,0,VALID,23.7525,VALID,41,VALID,0,
2009-03-01, 01:35:05,VALID,1007.08,VALID,0,VALID,93.6061,VALID,0,VALID,23.7525,VALID,41,VALID,0,
2009-03-01, 01:36:05,VALID,1007.05,VALID,0,VALID,93.5909,VALID,0,VALID,23.7507,VALID,41,VALID,0,
2009-03-01, 01:37:05,VALID,1007.02,VALID,0,VALID,93.629,VALID,0,VALID,23.772,VALID,41,VALID,0,
2009-03-01, 01:38:05,VALID,1007,VALID,0,VALID,93.6595,VALID,0,VALID,23.7507,VALID,41,VALID,0,
2009-03-01, 01:39:05,VALID,1006.98,VALID,0,VALID,93.6442,VALID,0,VALID,23.7525,VALID,41,VALID,0,
2009-03-01, 01:40:05,VALID,1006.97,VALID,0,VALID,93.6366,VALID,0,VALID,23.733,VALID,41,VALID,0,
2009-03-01, 01:41:05,VALID,1006.94,VALID,0,VALID,93.6671,VALID,0,VALID,23.7525,VALID,41,VALID,0,
2009-03-01, 01:42:05,VALID,1006.92,VALID,0,VALID,93.6748,VALID,0,VALID,23.7117,VALID,41,VALID,0,
2009-03-01, 01:43:05,VALID,1006.94,VALID,0,VALID,93.6748,VALID,0,VALID,23.7117,VALID,41,VALID,0,
2009-03-01, 01:44:05,VALID,1006.91,VALID,0,VALID,93.69,VALID,0,VALID,23.6922,VALID,41,VALID,0,
2009-03-01, 01:45:05,VALID,1006.91,VALID,0,VALID,93.6671,VALID,0,VALID,23.6727,VALID,41,VALID,0,
2009-03-01, 01:46:05,VALID,1006.88,VALID,0,VALID,93.6671,VALID,0,VALID,23.6338,VALID,41,VALID,0,
2009-03-01, 01:47:05,VALID,1006.88,VALID,0,VALID,93.69,VALID,0.105969,VALID,23.6532,VALID,41,VALID,0,
2009-03-01, 01:48:05,VALID,1006.9,VALID,0,VALID,93.6748,VALID,0,VALID,23.655,VALID,41,VALID,0,
2009-03-01, 01:49:05,VALID,1006.9,VALID,0,VALID,93.69,VALID,0,VALID,23.6356,VALID,41,VALID,0,
2009-03-01, 01:50:05,VALID,1006.9,VALID,0,VALID,93.6671,VALID,0,VALID,23.5948,VALID,41,VALID,0,
2009-03-01, 01:51:05,VALID,1006.91,VALID,0,VALID,93.6824,VALID,0,VALID,23.5948,VALID,41,VALID,0,
2009-03-01, 01:52:04,VALID,1006.89,VALID,0,VALID,93.69,VALID,0,VALID,23.6356,VALID,41,VALID,0,
2009-03-01, 01:53:04,VALID,1006.88,VALID,0,VALID,93.7281,VALID,0,VALID,23.6143,VALID,41,VALID,0,
2009-03-01, 01:54:04,VALID,1006.9,VALID,0,VALID,93.7434,VALID,0,VALID,23.6161,VALID,41,VALID,0,
2009-03-01, 01:55:04,VALID,1006.88,VALID,0,VALID,93.7434,VALID,0,VALID,23.6143,VALID,41,VALID,0,
2009-03-01, 01:56:04,VALID,1006.88,VALID,0,VALID,93.7663,VALID,0,VALID,23.6143,VALID,41,VALID,0,
2009-03-01, 01:57:04,VALID,1006.86,VALID,0,VALID,93.7739,VALID,0,VALID,23.6356,VALID,41,VALID,0,
2009-03-01, 01:58:04,VALID,1006.84,VALID,0,VALID,93.7891,VALID,0,VALID,23.6356,VALID,41,VALID,0,
2009-03-01, 01:59:04,VALID,1006.84,VALID,0,VALID,93.8044,VALID,0.105969,VALID,23.6143,VALID,41,VALID,0,
2009-03-01, 02:00:04,VALID,1006.84,VALID,0,VALID,93.8044,VALID,0,VALID,23.6143,VALID,41,VALID,0,
2009-03-01, 02:01:04,VALID,1006.83,VALID,0,VALID,93.8273,VALID,0,VALID,23.6143,VALID,41,VALID,0,
2009-03-01, 02:02:04,VALID,1006.8,VALID,0,VALID,93.8349,VALID,0,VALID,23.6143,VALID,41,VALID,0,
2009-03-01, 02:03:04,VALID,1006.81,VALID,0,VALID,93.8425,VALID,0,VALID,23.6356,VALID,41,VALID,0,
2009-03-01, 02:04:04,VALID,1006.79,VALID,0,VALID,93.8349,VALID,0,VALID,23.6356,VALID,41,VALID,0,
2009-03-01, 02:05:04,VALID,1006.82,VALID,0,VALID,93.8654,VALID,0,VALID,23.6143,VALID,41,VALID,0,
2009-03-01, 02:06:04,VALID,1006.79,VALID,0,VALID,93.8578,VALID,0,VALID,23.6161,VALID,41,VALID,0,
2009-03-01, 02:07:04,VALID,1006.84,VALID,0,VALID,93.8807,VALID,0,VALID,23.6161,VALID,41,VALID,0,
2009-03-01, 02:08:04,VALID,1006.84,VALID,0,VALID,93.8578,VALID,0,VALID,23.6161,VALID,41,VALID,0,
2009-03-01, 02:09:04,VALID,1006.86,VALID,0,VALID,93.8654,VALID,0,VALID,23.6161,VALID,41,VALID,0,
2009-03-01, 02:10:04,VALID,1006.84,VALID,0,VALID,93.8654,VALID,0,VALID,23.6161,VALID,41,VALID,0,
2009-03-01, 02:11:04,VALID,1006.85,VALID,0,VALID,93.873,VALID,0,VALID,23.5948,VALID,41,VALID,0,
2009-03-01, 02:12:04,VALID,1006.84,VALID,0,VALID,93.8959,VALID,0,VALID,23.6143,VALID,41,VALID,0,
2009-03-01, 02:13:04,VALID,1006.85,VALID,0,VALID,93.9035,VALID,0,VALID,23.6143,VALID,41,VALID,0,
2009-03-01, 02:14:04,VALID,1006.82,VALID,0,VALID,93.8883,VALID,0,VALID,23.6143,VALID,41,VALID,0,
2009-03-01, 02:15:04,VALID,1006.85,VALID,0,VALID,93.8959,VALID,0.105969,VALID,23.6338,VALID,41,VALID,0,
2009-03-01, 02:16:04,VALID,1006.83,VALID,0,VALID,93.8883,VALID,0,VALID,23.655,VALID,41,VALID,0,
2009-03-01, 02:17:04,VALID,1006.81,VALID,0,VALID,93.9264,VALID,0,VALID,23.6338,VALID,41,VALID,0,
2009-03-01, 02:18:04,VALID,1006.79,VALID,0,VALID,93.9112,VALID,0,VALID,23.6338,VALID,41,VALID,0,
2009-03-01, 02:19:04,VALID,1006.78,VALID,0,VALID,93.934,VALID,0,VALID,23.655,VALID,41,VALID,0,
2009-03-01, 02:20:04,VALID,1006.8,VALID,0,VALID,93.9112,VALID,0,VALID,23.6338,VALID,41,VALID,0,
2009-03-01, 02:21:04,VALID,1006.82,VALID,0,VALID,93.934,VALID,0,VALID,23.6532,VALID,41,VALID,0,
2009-03-01, 02:22:04,VALID,1006.8,VALID,0,VALID,93.9417,VALID,0,VALID,23.6532,VALID,41,VALID,0,
2009-03-01, 02:23:04,VALID,1006.81,VALID,0,VALID,93.9569,VALID,0,VALID,23.6745,VALID,41,VALID,0,
2009-03-01, 02:24:04,VALID,1006.77,VALID,0,VALID,93.9569,VALID,0,VALID,23.6532,VALID,41,VALID,0,
2009-03-01, 02:25:04,VALID,1006.78,VALID,0,VALID,93.9569,VALID,0,VALID,23.6727,VALID,41,VALID,0,
2009-03-01, 02:26:04,VALID,1006.76,VALID,0,VALID,93.9722,VALID,0,VALID,23.6338,VALID,41,VALID,0,
2009-03-01, 02:27:04,VALID,1006.79,VALID,0,VALID,93.9645,VALID,0,VALID,23.6338,VALID,41,VALID,0,
2009-03-01, 02:28:04,VALID,1006.79,VALID,0,VALID,93.9645,VALID,0,VALID,23.6338,VALID,41,VALID,0,
2009-03-01, 02:29:04,VALID,1006.81,VALID,0,VALID,93.9874,VALID,0,VALID,23.6143,VALID,41,VALID,0,
2009-03-01, 02:30:04,VALID,1006.78,VALID,0,VALID,93.9645,VALID,0,VALID,23.6338,VALID,41,VALID,0,
2009-03-01, 02:31:04,VALID,1006.78,VALID,0,VALID,93.9874,VALID,0,VALID,23.6745,VALID,41,VALID,0,
2009-03-01, 02:32:04,VALID,1006.79,VALID,0,VALID,93.9798,VALID,0,VALID,23.655,VALID,41,VALID,0,
2009-03-01, 02:33:04,VALID,1006.81,VALID,0,VALID,93.9722,VALID,0,VALID,23.6356,VALID,41,VALID,0,
2009-03-01, 02:34:04,VALID,1006.79,VALID,0,VALID,93.9645,VALID,0,VALID,23.6338,VALID,41,VALID,0,
2009-03-01, 02:35:04,VALID,1006.81,VALID,0,VALID,93.995,VALID,0,VALID,23.655,VALID,41,VALID,0,
2009-03-01, 02:36:04,VALID,1006.82,VALID,0,VALID,94.0103,VALID,0,VALID,23.6745,VALID,42,VALID,0.241016,
2009-03-01, 02:37:04,VALID,1006.86,VALID,0,VALID,94.0027,VALID,0,VALID,23.6922,VALID,47,VALID,0.422656,
2009-03-01, 02:38:04,VALID,1006.86,VALID,0,VALID,94.0255,VALID,0,VALID,23.7117,VALID,47,VALID,0.314844,
2009-03-01, 02:39:04,VALID,1006.9,VALID,0,VALID,94.0179,VALID,0,VALID,23.7117,VALID,47,VALID,0.289453,
2009-03-01, 02:40:04,VALID,1006.86,VALID,0,VALID,94.0255,VALID,0,VALID,23.7117,VALID,47,VALID,0.0265625,
2009-03-01, 02:41:04,VALID,1006.89,VALID,0,VALID,94.0255,VALID,0,VALID,23.6922,VALID,50,VALID,0.197656,
2009-03-01, 02:42:04,VALID,1006.87,VALID,0,VALID,94.0408,VALID,0,VALID,23.7135,VALID,79,VALID,0.444141,
2009-03-01, 02:43:04,VALID,1006.86,VALID,0,VALID,94.0332,VALID,0,VALID,23.733,VALID,87,VALID,0.220703,
2009-03-01, 02:44:04,VALID,1006.87,VALID,0,VALID,94.0255,VALID,0,VALID,23.733,VALID,87,VALID,0.0140625,
2009-03-01, 02:45:04,VALID,1006.84,VALID,0,VALID,94.0332,VALID,0,VALID,23.733,VALID,87,VALID,0.182422,
2009-03-01, 02:46:04,VALID,1006.88,VALID,0,VALID,94.0408,VALID,0,VALID,23.772,VALID,87,VALID,0.296094,
2009-03-01, 02:47:04,VALID,1006.88,VALID,0,VALID,94.0408,VALID,0,VALID,23.7914,VALID,86,VALID,0.381641,
2009-03-01, 02:48:04,VALID,1006.87,VALID,0,VALID,94.0789,VALID,0,VALID,23.8109,VALID,86,VALID,0.158594,
2009-03-01, 02:49:04,VALID,1006.85,VALID,0,VALID,94.056,VALID,0,VALID,23.8304,VALID,86,VALID,0.0640625,
2009-03-01, 02:50:04,VALID,1006.83,VALID,0,VALID,94.056,VALID,0,VALID,23.8091,VALID,64,VALID,0.280469,
2009-03-01, 02:51:04,VALID,1006.82,VALID,0,VALID,94.0637,VALID,0,VALID,23.8091,VALID,64,VALID,0.184375,
2009-03-01, 02:52:04,VALID,1006.82,VALID,0,VALID,94.0408,VALID,0,VALID,23.8091,VALID,64,VALID,0.307031,
2009-03-01, 02:53:04,VALID,1006.78,VALID,0,VALID,94.0408,VALID,0,VALID,23.8109,VALID,53,VALID,0.401563,
2009-03-01, 02:54:04,VALID,1006.77,VALID,0,VALID,94.0332,VALID,0,VALID,23.7896,VALID,54,VALID,0.384375,
2009-03-01, 02:55:04,VALID,1006.76,VALID,0,VALID,94.0332,VALID,0,VALID,23.7914,VALID,54,VALID,0.275781,
2009-03-01, 02:56:04,VALID,1006.73,VALID,0,VALID,94.0103,VALID,0,VALID,23.7914,VALID,54,VALID,0.485547,
2009-03-01, 02:57:04,VALID,1006.73,VALID,0,VALID,94.0179,VALID,0,VALID,23.772,VALID,49,VALID,0.442578,
2009-03-01, 02:58:04,VALID,1006.73,VALID,0,VALID,94.0179,VALID,0,VALID,23.7914,VALID,41,VALID,0.304688,
2009-03-01, 02:59:04,VALID,1006.75,VALID,0,VALID,94.0027,VALID,0,VALID,23.7914,VALID,41,VALID,0,
2009-03-01, 03:00:04,VALID,1006.7,VALID,0,VALID,94.0027,VALID,0,VALID,23.772,VALID,41,VALID,0,
2009-03-01, 03:01:04,VALID,1006.71,VALID,0,VALID,93.995,VALID,0,VALID,23.7507,VALID,41,VALID,0,
2009-03-01, 03:02:04,VALID,1006.71,VALID,0,VALID,93.995,VALID,0,VALID,23.7525,VALID,41,VALID,0,
2009-03-01, 03:03:04,VALID,1006.72,VALID,0,VALID,93.9722,VALID,0,VALID,23.7117,VALID,41,VALID,0,
2009-03-01, 03:04:04,VALID,1006.7,VALID,0,VALID,93.9798,VALID,0,VALID,23.6727,VALID,41,VALID,0,
2009-03-01, 03:05:04,VALID,1006.69,VALID,0,VALID,93.9493,VALID,0.105969,VALID,23.6727,VALID,41,VALID,0.30625,
2009-03-01, 03:06:04,VALID,1006.69,VALID,0,VALID,93.9645,VALID,0,VALID,23.6727,VALID,44,VALID,0,
2009-03-01, 03:07:04,VALID,1006.69,VALID,0,VALID,93.9569,VALID,0.105969,VALID,23.6532,VALID,44,VALID,0,
2009-03-01, 03:08:04,VALID,1006.66,VALID,0,VALID,93.9493,VALID,0,VALID,23.6338,VALID,44,VALID,0,
2009-03-01, 03:09:04,VALID,1006.65,VALID,0,VALID,93.9493,VALID,0.105969,VALID,23.6532,VALID,48,VALID,0,
2009-03-01, 03:10:04,VALID,1006.69,VALID,0,VALID,93.9569,VALID,0,VALID,23.6338,VALID,48,VALID,0,
2009-03-01, 03:11:04,VALID,1006.71,VALID,0,VALID,93.9493,VALID,0,VALID,23.6356,VALID,48,VALID,0,
2009-03-01, 03:12:04,VALID,1006.73,VALID,0,VALID,93.9417,VALID,0,VALID,23.6143,VALID,48,VALID,0,
2009-03-01, 03:13:04,VALID,1006.75,VALID,0,VALID,93.9569,VALID,0,VALID,23.5948,VALID,78,VALID,0,
2009-03-01, 03:14:04,VALID,1006.76,VALID,0,VALID,93.934,VALID,0,VALID,23.5948,VALID,79,VALID,0,
2009-03-01, 03:15:04,VALID,1006.77,VALID,0,VALID,93.9417,VALID,0,VALID,23.5753,VALID,79,VALID,0,
2009-03-01, 03:16:04,VALID,1006.75,VALID,0,VALID,93.9569,VALID,0,VALID,23.5753,VALID,79,VALID,0,
2009-03-01, 03:17:04,VALID,1006.77,VALID,0,VALID,93.9417,VALID,0,VALID,23.5771,VALID,65,VALID,0,
2009-03-01, 03:18:04,VALID,1006.72,VALID,0,VALID,93.9493,VALID,0,VALID,23.5558,VALID,66,VALID,0,
2009-03-01, 03:19:04,VALID,1006.73,VALID,0,VALID,93.9417,VALID,0,VALID,23.5771,VALID,67,VALID,0,
2009-03-01, 03:20:04,VALID,1006.71,VALID,0,VALID,93.9569,VALID,0,VALID,23.5576,VALID,68,VALID,0,
2009-03-01, 03:21:04,VALID,1006.73,VALID,0,VALID,93.9493,VALID,0,VALID,23.5363,VALID,68,VALID,0.517578,
2009-03-01, 03:22:04,VALID,1006.74,VALID,0,VALID,93.9722,VALID,0,VALID,23.5363,VALID,59,VALID,0.519922,
2009-03-01, 03:23:04,VALID,1006.74,VALID,0,VALID,93.9569,VALID,0,VALID,23.5381,VALID,78,VALID,0.357812,
2009-03-01, 03:24:04,VALID,1006.76,VALID,0,VALID,93.9569,VALID,0,VALID,23.5169,VALID,59,VALID,0.0636719,
2009-03-01, 03:25:04,VALID,1006.78,VALID,0,VALID,93.9722,VALID,0.105969,VALID,23.5186,VALID,59,VALID,0,
2009-03-01, 03:26:04,VALID,1006.73,VALID,0,VALID,93.9493,VALID,0,VALID,23.4797,VALID,60,VALID,0,
2009-03-01, 03:27:04,VALID,1006.75,VALID,0,VALID,93.9798,VALID,0,VALID,23.4779,VALID,60,VALID,0,
2009-03-01, 03:28:04,VALID,1006.73,VALID,0,VALID,93.9569,VALID,0,VALID,23.4797,VALID,60,VALID,0,
2009-03-01, 03:29:04,VALID,1006.73,VALID,0,VALID,93.9645,VALID,0,VALID,23.4584,VALID,60,VALID,0,
2009-03-01, 03:30:04,VALID,1006.72,VALID,0,VALID,93.9722,VALID,0,VALID,23.4797,VALID,85,VALID,0,
2009-03-01, 03:31:04,VALID,1006.73,VALID,0,VALID,93.9722,VALID,0,VALID,23.4797,VALID,73,VALID,0.33125,
2009-03-01, 03:32:04,VALID,1006.7,VALID,0,VALID,93.9798,VALID,0,VALID,23.4602,VALID,73,VALID,0.115625,
2009-03-01, 03:33:04,VALID,1006.68,VALID,0,VALID,93.9874,VALID,0,VALID,23.4389,VALID,73,VALID,0,
2009-03-01, 03:34:04,VALID,1006.69,VALID,0,VALID,93.995,VALID,0,VALID,23.4407,VALID,73,VALID,0.382813,
2009-03-01, 03:35:04,VALID,1006.69,VALID,0,VALID,94.0103,VALID,0.105969,VALID,23.4389,VALID,73,VALID,0.128516,
2009-03-01, 03:36:04,VALID,1006.67,VALID,0,VALID,94.0179,VALID,0,VALID,23.4407,VALID,73,VALID,0,
2009-03-01, 03:37:04,VALID,1006.66,VALID,0,VALID,94.0103,VALID,0,VALID,23.4212,VALID,73,VALID,0.180078,
2009-03-01, 03:38:04,VALID,1006.67,VALID,0,VALID,94.0255,VALID,0,VALID,23.4194,VALID,50,VALID,0.400781,
2009-03-01, 03:39:04,VALID,1006.69,VALID,0,VALID,94.0179,VALID,0,VALID,23.4407,VALID,73,VALID,0.548047,
2009-03-01, 03:40:04,VALID,1006.67,VALID,0,VALID,94.0408,VALID,0,VALID,23.4407,VALID,70,VALID,0.318359,
2009-03-01, 03:41:04,VALID,1006.66,VALID,0,VALID,94.0484,VALID,0,VALID,23.4389,VALID,70,VALID,0.0644531,
2009-03-01, 03:42:04,VALID,1006.67,VALID,0,VALID,94.0637,VALID,0,VALID,23.4602,VALID,70,VALID,0.04375,
2009-03-01, 03:43:04,VALID,1006.67,VALID,0,VALID,94.0713,VALID,0,VALID,23.4407,VALID,66,VALID,0,
2009-03-01, 03:44:04,VALID,1006.66,VALID,0,VALID,94.0713,VALID,0,VALID,23.4602,VALID,78,VALID,0.5375,
2009-03-01, 03:45:04,VALID,1006.64,VALID,0,VALID,94.1018,VALID,0,VALID,23.4797,VALID,77,VALID,0.289844,
2009-03-01, 03:46:04,VALID,1006.66,VALID,0,VALID,94.1094,VALID,0,VALID,23.4584,VALID,72,VALID,0.385547,
2009-03-01, 03:47:04,VALID,1006.65,VALID,0,VALID,94.1018,VALID,0,VALID,23.4797,VALID,70,VALID,0.445313,
2009-03-01, 03:48:04,VALID,1006.67,VALID,0,VALID,94.1171,VALID,0,VALID,23.4779,VALID,80,VALID,0.453125,
2009-03-01, 03:49:04,VALID,1006.67,VALID,0,VALID,94.1247,VALID,0,VALID,23.4779,VALID,57,VALID,0.117188,
2009-03-01, 03:50:04,VALID,1006.66,VALID,0,VALID,94.1171,VALID,0,VALID,23.4797,VALID,90,VALID,0.582031,
2009-03-01, 03:51:04,VALID,1006.68,VALID,0,VALID,94.1476,VALID,0,VALID,23.4584,VALID,57,VALID,0.439063,
2009-03-01, 03:52:04,VALID,1006.67,VALID,0,VALID,94.1552,VALID,0,VALID,23.4992,VALID,83,VALID,0.524609,
2009-03-01, 03:53:04,VALID,1006.7,VALID,0,VALID,94.1628,VALID,0,VALID,23.4584,VALID,80,VALID,0.453516,
2009-03-01, 03:54:04,VALID,1006.7,VALID,0,VALID,94.1552,VALID,0,VALID,23.4779,VALID,88,VALID,0.667578,
2009-03-01, 03:55:04,VALID,1006.73,VALID,0,VALID,94.1628,VALID,0.105969,VALID,23.4992,VALID,73,VALID,0.732422,
2009-03-01, 03:56:04,VALID,1006.71,VALID,0,VALID,94.1704,VALID,0,VALID,23.4779,VALID,74,VALID,0.417578,
2009-03-01, 03:57:04,VALID,1006.75,VALID,0,VALID,94.1704,VALID,0,VALID,23.4779,VALID,75,VALID,0.629687,
2009-03-01, 03:58:04,VALID,1006.72,VALID,0,VALID,94.1704,VALID,0.105969,VALID,23.4797,VALID,73,VALID,0.149219,